WXM80 ListenWXM80 Stop

You find our weather info also at:

UK Metoffice

WeatherCloud

Weather Underground

Northeastern Weather Network

AWEKAS

Citizen Weather Observer Program (CWOP)

HAMweather, WeatherForYou, PWS Weather


Weather Underground History page Text

Daily Summary for January 6, 2017 Units:  English    Metric   Both
« Previous Day
Next Day »
Daily Weekly Monthly Yearly Custom
  High: Low: Average:
Temperature: 33.9 °F 26.4 °F 30.3 °F
Dew Point: 26.5 °F 13.7 °F 22.4 °F
Humidity: 90 % 57 % 73 %
Wind Speed: 7.3 mph 0.0 mph 2.5 mph
Wind Gust: 29.0 mph - -
Wind:- - SSW
Pressure: 30.25 in 29.90 in -
Precipitation: 0.01 in    
Historical Graphs
 
 
Tabular Data for January 6, 2017
Time Temperature Dew Point Pressure Wind Wind Speed Wind Gust Humidity Rainfall Rate (Hourly)
00:04 31.9 °F 18.4 °F 29.92 in SW 0.5 mph 29.0 mph 57 % 0.00 in
00:09 31.8 °F 18.3 °F 29.93 in SW 2.6 mph 29.0 mph 57 % 0.00 in
00:15 31.8 °F 18.3 °F 29.93 in SW 0.3 mph 29.0 mph 57 % 0.00 in
00:20 31.9 °F 18.8 °F 29.93 in SW 0.8 mph 29.0 mph 58 % 0.00 in
00:25 31.9 °F 18.8 °F 29.93 in WNW 1.3 mph 29.0 mph 58 % 0.00 in
00:30 31.9 °F 20.0 °F 29.93 in SSW 2.5 mph 29.0 mph 61 % 0.00 in
00:35 31.8 °F 21.0 °F 29.94 in WSW 4.8 mph 29.0 mph 64 % 0.00 in
00:40 31.7 °F 21.6 °F 29.94 in SW 4.0 mph 29.0 mph 66 % 0.00 in
00:45 31.5 °F 22.1 °F 29.94 in WSW 3.8 mph 29.0 mph 68 % 0.00 in
00:50 31.3 °F 22.6 °F 29.94 in SW 3.4 mph 29.0 mph 70 % 0.00 in
00:55 31.2 °F 22.9 °F 29.94 in SSW 1.3 mph 29.0 mph 71 % 0.00 in
01:00 31.1 °F 23.1 °F 29.94 in WSW 0.8 mph 29.0 mph 72 % 0.00 in
01:05 31.0 °F 23.7 °F 29.95 in SSW 2.3 mph 29.0 mph 74 % 0.00 in
01:10 30.8 °F 23.8 °F 29.95 in SW 2.3 mph 29.0 mph 75 % 0.00 in
01:15 30.7 °F 24.3 °F 29.94 in SW 1.6 mph 29.0 mph 77 % 0.00 in
01:20 30.6 °F 24.6 °F 29.94 in WSW 3.8 mph 29.0 mph 78 % 0.00 in
01:25 30.4 °F 24.7 °F 29.94 in SW 2.9 mph 29.0 mph 79 % 0.00 in
01:30 30.2 °F 24.8 °F 29.94 in SW 1.6 mph 29.0 mph 80 % 0.00 in
01:35 30.1 °F 25.0 °F 29.94 in WSW 1.2 mph 29.0 mph 81 % 0.00 in
01:41 29.9 °F 25.1 °F 29.94 in WSW 1.8 mph 29.0 mph 82 % 0.00 in
01:46 29.8 °F 25.0 °F 29.94 in SW 0.5 mph 29.0 mph 82 % 0.00 in
01:51 29.7 °F 25.2 °F 29.94 in SW 2.2 mph 29.0 mph 83 % 0.00 in
01:56 29.6 °F 25.4 °F 29.94 in SW 1.0 mph 29.0 mph 84 % 0.00 in
02:01 29.5 °F 25.3 °F 29.94 in West 1.8 mph 29.0 mph 84 % 0.00 in
02:06 29.5 °F 25.5 °F 29.94 in Calm   29.0 mph 85 % 0.00 in
02:11 29.4 °F 25.4 °F 29.94 in Calm   29.0 mph 85 % 0.00 in
02:16 29.4 °F 25.4 °F 29.94 in Calm   29.0 mph 85 % 0.00 in
02:21 29.4 °F 25.7 °F 29.94 in West 0.8 mph 29.0 mph 86 % 0.00 in
02:26 29.4 °F 26.0 °F 29.94 in WNW 0.2 mph 29.0 mph 87 % 0.00 in
02:31 29.4 °F 26.0 °F 29.94 in WNW 0.8 mph 29.0 mph 87 % 0.00 in
02:36 29.4 °F 26.3 °F 29.94 in West 0.5 mph 29.0 mph 88 % 0.00 in
02:41 29.4 °F 26.3 °F 29.94 in NW 2.4 mph 29.0 mph 88 % 0.00 in
02:43 29.3 °F 26.2 °F 29.94 in NW 0.7 mph 29.0 mph 88 % 0.00 in
02:48 29.3 °F 26.2 °F 29.94 in WNW 2.2 mph 29.0 mph 88 % 0.00 in
02:53 29.2 °F 26.4 °F 29.94 in West 2.5 mph 29.0 mph 89 % 0.00 in
02:58 29.2 °F 26.4 °F 29.94 in WNW 2.0 mph 29.0 mph 89 % 0.00 in
03:03 29.2 °F 26.4 °F 29.93 in NNW 1.8 mph 29.0 mph 89 % 0.00 in
03:08 29.1 °F 26.3 °F 29.93 in NW 0.1 mph 29.0 mph 89 % 0.00 in
03:13 29.1 °F 26.5 °F 29.92 in Calm   29.0 mph 90 % 0.01 in
03:18 29.0 °F 26.4 °F 29.92 in NW 0.2 mph 29.0 mph 90 % 0.01 in
03:23 29.0 °F 26.4 °F 29.91 in Calm   29.0 mph 90 % 0.01 in
03:28 29.0 °F 26.4 °F 29.91 in Calm   29.0 mph 90 % 0.01 in
03:33 28.9 °F 26.3 °F 29.91 in Calm   29.0 mph 90 % 0.01 in
03:39 28.9 °F 26.3 °F 29.91 in Calm   29.0 mph 90 % 0.01 in
03:44 28.8 °F 26.2 °F 29.91 in Calm   29.0 mph 90 % 0.01 in
03:49 28.8 °F 26.2 °F 29.91 in Calm   29.0 mph 90 % 0.01 in
03:54 28.8 °F 26.2 °F 29.91 in NNW 0.8 mph 29.0 mph 90 % 0.01 in
03:59 28.7 °F 26.1 °F 29.91 in NNE 2.1 mph 29.0 mph 90 % 0.01 in
04:04 28.7 °F 26.1 °F 29.90 in NNE 1.2 mph 29.0 mph 90 % 0.01 in
04:09 28.7 °F 26.1 °F 29.90 in Calm   3.0 mph 90 % 0.00 in
04:14 28.7 °F 26.1 °F 29.90 in North 0.6 mph 29.0 mph 90 % 0.00 in
04:19 28.7 °F 26.1 °F 29.90 in North 1.0 mph 3.0 mph 90 % 0.00 in
04:24 28.6 °F 26.1 °F 29.90 in NNE 2.0 mph 5.0 mph 90 % 0.00 in
04:29 28.6 °F 26.0 °F 29.90 in NNE 2.0 mph 4.0 mph 90 % 0.00 in
04:34 28.6 °F 25.8 °F 29.91 in North 2.0 mph 5.0 mph 89 % 0.00 in
04:39 28.6 °F 25.8 °F 29.91 in North 1.0 mph 5.0 mph 89 % 0.00 in
04:44 28.6 °F 25.8 °F 29.90 in North 2.0 mph 6.0 mph 89 % 0.00 in
04:49 28.6 °F 25.8 °F 29.91 in North 1.0 mph 3.0 mph 89 % 0.00 in
04:54 28.5 °F 25.7 °F 29.92 in Calm   29.0 mph 89 % 0.00 in
04:59 28.5 °F 25.7 °F 29.92 in North 1.0 mph 29.0 mph 89 % 0.00 in
05:04 28.5 °F 25.7 °F 29.92 in NNW 1.4 mph 29.0 mph 89 % 0.00 in
05:09 28.5 °F 25.7 °F 29.92 in NNW 0.5 mph 29.0 mph 89 % 0.00 in
05:14 28.6 °F 25.8 °F 29.92 in Calm   29.0 mph 89 % 0.00 in
05:19 28.6 °F 25.8 °F 29.92 in Calm   29.0 mph 89 % 0.00 in
05:24 28.6 °F 25.8 °F 29.92 in NNW 0.8 mph 29.0 mph 89 % 0.00 in
05:29 28.6 °F 25.8 °F 29.92 in NNE 2.9 mph 29.0 mph 89 % 0.00 in
05:35 28.6 °F 25.8 °F 29.91 in NNE 3.8 mph 29.0 mph 89 % 0.00 in
05:40 28.5 °F 25.4 °F 29.91 in North 1.6 mph 29.0 mph 88 % 0.00 in
05:45 28.5 °F 25.1 °F 29.91 in NW 1.5 mph 29.0 mph 87 % 0.00 in
05:50 28.5 °F 25.1 °F 29.92 in NNE 2.6 mph 29.0 mph 87 % 0.00 in
05:55 28.5 °F 25.1 °F 29.93 in NNE 1.6 mph 29.0 mph 87 % 0.00 in
06:00 28.5 °F 25.1 °F 29.94 in NNW 0.4 mph 29.0 mph 87 % 0.00 in
06:05 28.5 °F 25.1 °F 29.95 in North 1.0 mph 29.0 mph 87 % 0.00 in
06:10 28.5 °F 25.1 °F 29.95 in NNE 4.5 mph 29.0 mph 87 % 0.00 in
06:15 28.5 °F 24.8 °F 29.95 in NNE 2.6 mph 29.0 mph 86 % 0.00 in
06:20 28.6 °F 24.9 °F 29.96 in NNE 3.9 mph 29.0 mph 86 % 0.00 in
06:25 28.6 °F 24.9 °F 29.96 in NNE 0.7 mph 29.0 mph 86 % 0.00 in
06:30 28.6 °F 24.9 °F 29.95 in North 4.4 mph 29.0 mph 86 % 0.00 in
06:35 28.6 °F 24.9 °F 29.97 in North 4.3 mph 29.0 mph 86 % 0.00 in
06:41 28.6 °F 24.9 °F 29.97 in NNW 1.9 mph 29.0 mph 86 % 0.00 in
06:46 28.7 °F 24.8 °F 29.97 in NNW 3.6 mph 29.0 mph 85 % 0.00 in
06:51 28.6 °F 24.4 °F 29.96 in North 2.1 mph 29.0 mph 84 % 0.00 in
06:56 28.6 °F 24.4 °F 29.96 in NE 4.8 mph 29.0 mph 84 % 0.00 in
07:01 28.6 °F 24.4 °F 29.97 in North 4.0 mph 29.0 mph 84 % 0.00 in
07:06 28.6 °F 24.4 °F 29.98 in NNW 1.4 mph 29.0 mph 84 % 0.00 in
07:11 28.6 °F 24.4 °F 29.99 in Calm   29.0 mph 84 % 0.00 in
07:16 28.6 °F 24.4 °F 29.99 in NNW 2.4 mph 29.0 mph 84 % 0.00 in
07:21 28.6 °F 24.7 °F 29.98 in NW 2.6 mph 29.0 mph 85 % 0.00 in
07:26 28.6 °F 24.7 °F 29.98 in NW 0.9 mph 29.0 mph 85 % 0.00 in
07:31 28.6 °F 24.7 °F 29.98 in NW 1.1 mph 29.0 mph 85 % 0.00 in
07:36 28.5 °F 24.8 °F 29.97 in North 3.8 mph 29.0 mph 86 % 0.00 in
07:41 28.5 °F 24.8 °F 29.97 in NNE 0.2 mph 29.0 mph 86 % 0.00 in
07:46 28.4 °F 24.7 °F 29.98 in NNW 0.9 mph 29.0 mph 86 % 0.00 in
07:51 28.4 °F 24.7 °F 29.99 in NW 0.7 mph 29.0 mph 86 % 0.00 in
07:56 28.4 °F 25.0 °F 29.99 in NW 2.2 mph 29.0 mph 87 % 0.00 in
08:02 28.4 °F 25.0 °F 29.99 in NNW 2.1 mph 29.0 mph 87 % 0.00 in
08:07 28.3 °F 24.9 °F 29.99 in NW 3.2 mph 29.0 mph 87 % 0.00 in
08:12 28.3 °F 25.2 °F 29.98 in WNW 2.0 mph 29.0 mph 88 % 0.00 in
08:17 28.3 °F 25.2 °F 29.99 in NW 0.3 mph 29.0 mph 88 % 0.00 in
08:22 28.3 °F 25.2 °F 29.99 in NNW 1.5 mph 29.0 mph 88 % 0.00 in
08:27 28.4 °F 25.3 °F 29.99 in West 0.8 mph 29.0 mph 88 % 0.00 in
08:32 28.4 °F 25.3 °F 30.00 in NNW 1.1 mph 29.0 mph 88 % 0.00 in
08:37 28.4 °F 25.3 °F 30.00 in NW 1.8 mph 29.0 mph 88 % 0.00 in
08:42 28.5 °F 25.4 °F 30.01 in WNW 1.9 mph 29.0 mph 88 % 0.00 in
08:47 28.6 °F 25.5 °F 30.01 in NW 1.5 mph 29.0 mph 88 % 0.00 in
08:52 28.7 °F 25.6 °F 30.00 in North 0.5 mph 29.0 mph 88 % 0.00 in
08:57 28.9 °F 25.8 °F 30.01 in NNW 1.5 mph 29.0 mph 88 % 0.00 in
09:02 29.0 °F 25.9 °F 30.01 in NNW 2.7 mph 29.0 mph 88 % 0.00 in
09:07 29.2 °F 26.1 °F 30.01 in NW 0.9 mph 29.0 mph 88 % 0.00 in
09:12 29.3 °F 26.2 °F 30.00 in North 2.0 mph 29.0 mph 88 % 0.00 in
09:17 29.4 °F 26.0 °F 30.01 in NW 3.7 mph 29.0 mph 87 % 0.00 in
09:23 29.4 °F 25.7 °F 30.02 in NNW 3.3 mph 29.0 mph 86 % 0.00 in
09:28 29.4 °F 25.4 °F 30.01 in NNE 3.0 mph 29.0 mph 85 % 0.00 in
09:33 29.4 °F 25.7 °F 30.01 in North 1.5 mph 29.0 mph 86 % 0.00 in
09:38 29.6 °F 25.6 °F 30.02 in North 2.2 mph 29.0 mph 85 % 0.00 in
09:43 29.8 °F 25.8 °F 30.02 in NW 1.2 mph 29.0 mph 85 % 0.00 in
09:48 29.9 °F 25.9 °F 30.02 in NNE 3.6 mph 29.0 mph 85 % 0.00 in
09:53 30.0 °F 26.0 °F 30.02 in NNW 2.7 mph 29.0 mph 85 % 0.00 in
09:58 30.1 °F 25.8 °F 30.02 in NNW 2.4 mph 29.0 mph 84 % 0.00 in
10:03 30.2 °F 25.9 °F 30.03 in NNE 2.0 mph 29.0 mph 84 % 0.00 in
10:08 30.4 °F 25.9 °F 30.03 in NNW 1.9 mph 29.0 mph 83 % 0.00 in
10:13 30.5 °F 26.0 °F 30.02 in North 4.8 mph 29.0 mph 83 % 0.00 in
10:18 30.6 °F 25.8 °F 30.03 in North 2.9 mph 29.0 mph 82 % 0.00 in
10:23 30.7 °F 25.6 °F 30.03 in NNW 4.5 mph 29.0 mph 81 % 0.00 in
10:28 30.9 °F 26.1 °F 30.02 in North 2.1 mph 29.0 mph 82 % 0.00 in
10:33 31.2 °F 26.3 °F 30.03 in NNE 1.4 mph 29.0 mph 82 % 0.00 in
10:39 31.4 °F 26.2 °F 30.03 in North 3.6 mph 29.0 mph 81 % 0.00 in
10:44 31.6 °F 26.1 °F 30.03 in North 3.7 mph 29.0 mph 80 % 0.00 in
10:49 31.5 °F 25.4 °F 30.03 in North 3.4 mph 29.0 mph 78 % 0.00 in
10:54 31.6 °F 25.8 °F 30.02 in North 2.5 mph 29.0 mph 79 % 0.00 in
10:59 31.6 °F 26.1 °F 30.02 in North 3.3 mph 29.0 mph 80 % 0.00 in
11:04 31.7 °F 26.3 °F 30.02 in North 5.0 mph 8.0 mph 80 % 0.00 in
11:09 31.9 °F 26.1 °F 30.02 in North 6.0 mph 10.0 mph 79 % 0.00 in
11:14 32.0 °F 25.9 °F 30.03 in North 6.0 mph 9.0 mph 78 % 0.00 in
11:19 32.2 °F 26.4 °F 30.03 in North 6.0 mph 9.0 mph 79 % 0.00 in
11:24 32.2 °F 25.8 °F 30.02 in North 3.0 mph 8.0 mph 77 % 0.00 in
11:29 32.1 °F 25.7 °F 30.01 in North 5.0 mph 6.0 mph 77 % 0.00 in
11:34 32.2 °F 26.1 °F 30.01 in North 3.0 mph 6.0 mph 78 % 0.00 in
11:39 32.3 °F 25.9 °F 30.01 in North 3.0 mph 8.0 mph 77 % 0.00 in
11:44 32.2 °F 25.5 °F 30.01 in North 1.0 mph 6.0 mph 76 % 0.00 in
11:49 32.1 °F 25.4 °F 30.01 in North 2.0 mph 7.0 mph 76 % 0.00 in
11:54 32.1 °F 25.7 °F 30.01 in North 1.0 mph 5.0 mph 77 % 0.00 in
11:59 32.2 °F 26.1 °F 30.01 in North 2.4 mph 29.0 mph 78 % 0.00 in
12:04 32.4 °F 25.7 °F 30.00 in NNE 3.0 mph 6.0 mph 76 % 0.00 in
12:09 32.6 °F 25.9 °F 30.01 in North 2.0 mph 6.0 mph 76 % 0.00 in
12:14 33.0 °F 26.2 °F 30.00 in North 3.0 mph 8.0 mph 76 % 0.00 in
12:19 33.2 °F 26.1 °F 30.00 in NNE 3.0 mph 7.0 mph 75 % 0.00 in
12:24 33.2 °F 25.8 °F 30.00 in North 2.0 mph 7.0 mph 74 % 0.00 in
12:29 33.2 °F 26.1 °F 30.00 in NE 2.6 mph 29.0 mph 75 % 0.00 in
12:34 33.2 °F 25.5 °F 30.00 in NNE 2.5 mph 29.0 mph 73 % 0.00 in
12:39 33.0 °F 24.3 °F 30.00 in NNE 0.9 mph 29.0 mph 70 % 0.00 in
12:44 32.8 °F 24.4 °F 30.00 in North 0.5 mph 29.0 mph 71 % 0.00 in
12:49 32.8 °F 24.4 °F 30.01 in NW 1.2 mph 29.0 mph 71 % 0.00 in
12:54 33.0 °F 24.6 °F 30.01 in NNW 3.0 mph 29.0 mph 71 % 0.00 in
12:59 33.2 °F 24.8 °F 30.01 in North 4.3 mph 29.0 mph 71 % 0.00 in
13:04 33.4 °F 25.3 °F 30.01 in NW 3.4 mph 29.0 mph 72 % 0.00 in
13:10 33.4 °F 25.0 °F 30.02 in North 1.9 mph 29.0 mph 71 % 0.00 in
13:15 33.4 °F 24.3 °F 30.01 in North 2.1 mph 29.0 mph 69 % 0.00 in
13:20 33.5 °F 25.1 °F 30.01 in NNW 1.1 mph 29.0 mph 71 % 0.00 in
13:25 33.5 °F 24.8 °F 30.01 in WNW 1.5 mph 29.0 mph 70 % 0.00 in
13:30 33.5 °F 24.4 °F 30.01 in NW 2.8 mph 29.0 mph 69 % 0.00 in
13:35 33.5 °F 24.8 °F 30.02 in NNW 1.4 mph 29.0 mph 70 % 0.00 in
13:40 33.4 °F 24.7 °F 30.01 in NNE 2.5 mph 29.0 mph 70 % 0.00 in
13:45 33.5 °F 24.8 °F 30.01 in NNW 1.3 mph 29.0 mph 70 % 0.00 in
13:50 33.5 °F 23.7 °F 30.01 in NNW 3.1 mph 29.0 mph 67 % 0.00 in
13:55 33.6 °F 24.5 °F 30.01 in North 1.9 mph 29.0 mph 69 % 0.00 in
14:01 33.7 °F 24.6 °F 30.01 in NNW 3.2 mph 29.0 mph 69 % 0.00 in
14:06 33.9 °F 24.4 °F 30.01 in NNE 4.4 mph 29.0 mph 68 % 0.00 in
14:11 33.9 °F 23.7 °F 30.02 in WNW 4.8 mph 29.0 mph 66 % 0.00 in
14:16 33.7 °F 22.8 °F 30.02 in NW 0.7 mph 29.0 mph 64 % 0.00 in
14:21 33.6 °F 22.7 °F 30.02 in NNW 2.8 mph 29.0 mph 64 % 0.00 in
14:26 33.5 °F 22.6 °F 30.02 in North 2.9 mph 29.0 mph 64 % 0.00 in
14:31 33.4 °F 22.1 °F 30.03 in NNE 1.7 mph 29.0 mph 63 % 0.00 in
14:36 33.4 °F 22.5 °F 30.04 in NNE 4.0 mph 29.0 mph 64 % 0.00 in
14:41 33.4 °F 22.1 °F 30.04 in NW 2.7 mph 29.0 mph 63 % 0.00 in
14:46 33.4 °F 21.8 °F 30.04 in NW 3.5 mph 29.0 mph 62 % 0.00 in
14:51 33.4 °F 22.1 °F 30.05 in NNE 3.8 mph 29.0 mph 63 % 0.00 in
14:56 33.3 °F 21.7 °F 30.04 in NNW 2.0 mph 29.0 mph 62 % 0.00 in
15:01 33.2 °F 21.6 °F 30.04 in North 5.1 mph 29.0 mph 62 % 0.00 in
15:06 33.1 °F 21.5 °F 30.04 in NW 2.8 mph 29.0 mph 62 % 0.00 in
15:11 33.0 °F 21.8 °F 30.04 in WNW 1.7 mph 29.0 mph 63 % 0.00 in
15:17 33.0 °F 21.0 °F 30.05 in NNW 2.9 mph 29.0 mph 61 % 0.00 in
15:22 32.9 °F 20.5 °F 30.05 in WNW 2.5 mph 29.0 mph 60 % 0.00 in
15:27 32.8 °F 20.4 °F 30.05 in WNW 0.7 mph 29.0 mph 60 % 0.00 in
15:32 32.7 °F 20.3 °F 30.05 in NW 0.9 mph 29.0 mph 60 % 0.00 in
15:37 32.7 °F 20.7 °F 30.04 in NW 0.4 mph 29.0 mph 61 % 0.00 in
15:42 32.6 °F 20.6 °F 30.05 in NNW 1.2 mph 29.0 mph 61 % 0.00 in
15:47 32.6 °F 20.2 °F 30.05 in NNW 1.1 mph 29.0 mph 60 % 0.00 in
15:52 32.5 °F 19.3 °F 30.05 in NNW 3.3 mph 29.0 mph 58 % 0.00 in
15:57 32.4 °F 20.0 °F 30.05 in North 4.2 mph 29.0 mph 60 % 0.00 in
16:02 32.3 °F 20.0 °F 30.06 in North 4.0 mph 29.0 mph 60 % 0.00 in
16:07 32.3 °F 20.3 °F 30.06 in North 2.7 mph 29.0 mph 61 % 0.00 in
16:12 32.2 °F 19.9 °F 30.06 in NNE 2.0 mph 29.0 mph 60 % 0.00 in
16:17 32.1 °F 19.8 °F 30.06 in North 3.7 mph 29.0 mph 60 % 0.00 in
16:22 32.0 °F 19.7 °F 30.06 in NW 1.2 mph 29.0 mph 60 % 0.00 in
16:27 32.0 °F 19.7 °F 30.06 in WNW 1.8 mph 29.0 mph 60 % 0.00 in
16:33 31.9 °F 19.6 °F 30.07 in North 2.2 mph 29.0 mph 60 % 0.00 in
16:38 31.8 °F 19.5 °F 30.07 in North 0.5 mph 29.0 mph 60 % 0.00 in
16:43 31.8 °F 19.5 °F 30.08 in NNW 0.7 mph 29.0 mph 60 % 0.00 in
16:48 31.8 °F 20.3 °F 30.08 in North 2.6 mph 29.0 mph 62 % 0.00 in
16:53 31.7 °F 20.2 °F 30.08 in NW 1.8 mph 29.0 mph 62 % 0.00 in
16:58 31.7 °F 20.2 °F 30.09 in North 0.3 mph 29.0 mph 62 % 0.00 in
17:03 31.6 °F 20.4 °F 30.09 in WNW 1.4 mph 29.0 mph 63 % 0.00 in
17:08 31.5 °F 20.0 °F 30.09 in North 2.7 mph 29.0 mph 62 % 0.00 in
17:13 31.5 °F 20.0 °F 30.10 in North 1.2 mph 29.0 mph 62 % 0.00 in
17:18 31.4 °F 20.6 °F 30.09 in NW 1.6 mph 29.0 mph 64 % 0.00 in
17:23 31.4 °F 20.6 °F 30.10 in NW 2.6 mph 29.0 mph 64 % 0.00 in
17:28 31.3 °F 20.2 °F 30.11 in NW 2.6 mph 29.0 mph 63 % 0.00 in
17:33 31.2 °F 20.1 °F 30.11 in NW 2.8 mph 29.0 mph 63 % 0.00 in
17:38 31.1 °F 20.0 °F 30.12 in NNW 2.7 mph 29.0 mph 63 % 0.00 in
17:43 31.0 °F 19.9 °F 30.12 in NW 3.1 mph 29.0 mph 63 % 0.00 in
17:49 31.0 °F 19.9 °F 30.12 in WNW 0.8 mph 29.0 mph 63 % 0.00 in
17:54 30.9 °F 19.8 °F 30.13 in NNW 1.8 mph 29.0 mph 63 % 0.00 in
17:59 30.8 °F 19.7 °F 30.13 in NNE 1.7 mph 29.0 mph 63 % 0.00 in
18:04 30.8 °F 18.9 °F 30.14 in NW 0.5 mph 29.0 mph 61 % 0.00 in
18:09 30.8 °F 19.3 °F 30.14 in NNW 0.6 mph 29.0 mph 62 % 0.00 in
18:14 30.8 °F 18.9 °F 30.14 in NNW 3.0 mph 6.0 mph 61 % 0.00 in
18:19 30.8 °F 19.3 °F 30.15 in NW 2.9 mph 29.0 mph 62 % 0.00 in
18:24 30.8 °F 19.3 °F 30.15 in NW 1.0 mph 7.0 mph 62 % 0.00 in
18:29 30.8 °F 19.3 °F 30.15 in NNW 3.0 mph 6.0 mph 62 % 0.00 in
18:34 30.8 °F 19.3 °F 30.15 in NW 1.0 mph 7.0 mph 62 % 0.00 in
18:39 30.8 °F 19.3 °F 30.14 in NW 3.0 mph 7.0 mph 62 % 0.00 in
18:44 30.8 °F 19.7 °F 30.15 in NNW 1.0 mph 3.0 mph 63 % 0.00 in
18:49 30.8 °F 19.7 °F 30.15 in NW 3.0 mph 6.0 mph 63 % 0.00 in
18:54 30.8 °F 19.3 °F 30.14 in NNW 5.0 mph 7.0 mph 62 % 0.00 in
18:59 30.8 °F 19.3 °F 30.15 in NW 3.7 mph 29.0 mph 62 % 0.00 in
19:04 30.8 °F 18.9 °F 30.16 in NW 2.1 mph 29.0 mph 61 % 0.00 in
19:09 30.7 °F 19.2 °F 30.16 in NW 2.5 mph 29.0 mph 62 % 0.00 in
19:14 30.7 °F 19.2 °F 30.17 in West 1.1 mph 29.0 mph 62 % 0.00 in
19:19 30.8 °F 18.9 °F 30.17 in WNW 3.2 mph 29.0 mph 61 % 0.00 in
19:24 30.7 °F 18.8 °F 30.17 in NNW 2.5 mph 29.0 mph 61 % 0.00 in
19:30 30.7 °F 19.2 °F 30.17 in NNW 1.7 mph 29.0 mph 62 % 0.00 in
19:35 30.7 °F 19.2 °F 30.17 in NNW 2.6 mph 29.0 mph 62 % 0.00 in
19:40 30.7 °F 18.8 °F 30.18 in North 2.7 mph 29.0 mph 61 % 0.00 in
19:45 30.7 °F 18.4 °F 30.17 in North 4.2 mph 29.0 mph 60 % 0.00 in
19:50 30.7 °F 18.4 °F 30.18 in NNW 2.5 mph 29.0 mph 60 % 0.00 in
19:55 30.6 °F 18.3 °F 30.18 in NNW 1.5 mph 29.0 mph 60 % 0.00 in
20:00 30.5 °F 18.6 °F 30.18 in NNW 2.0 mph 29.0 mph 61 % 0.00 in
20:05 30.5 °F 18.3 °F 30.17 in North 4.2 mph 29.0 mph 60 % 0.00 in
20:10 30.5 °F 18.3 °F 30.18 in WNW 1.9 mph 29.0 mph 60 % 0.00 in
20:15 30.4 °F 18.2 °F 30.19 in NNE 2.1 mph 29.0 mph 60 % 0.00 in
20:20 30.3 °F 18.5 °F 30.18 in NNW 3.0 mph 29.0 mph 61 % 0.00 in
20:25 30.3 °F 18.5 °F 30.19 in NNE 0.9 mph 29.0 mph 61 % 0.00 in
20:30 30.2 °F 18.4 °F 30.19 in NNE 2.1 mph 29.0 mph 61 % 0.00 in
20:35 30.1 °F 18.3 °F 30.19 in North 4.7 mph 29.0 mph 61 % 0.00 in
20:40 29.9 °F 18.1 °F 30.19 in North 4.1 mph 29.0 mph 61 % 0.00 in
20:46 29.8 °F 18.4 °F 30.19 in North 2.4 mph 29.0 mph 62 % 0.00 in
20:51 29.6 °F 18.2 °F 30.18 in North 4.6 mph 29.0 mph 62 % 0.00 in
20:56 29.5 °F 18.1 °F 30.18 in North 1.1 mph 29.0 mph 62 % 0.00 in
21:01 29.4 °F 18.0 °F 30.19 in NNE 1.8 mph 29.0 mph 62 % 0.00 in
21:06 29.4 °F 17.6 °F 30.20 in NNW 3.1 mph 29.0 mph 61 % 0.00 in
21:11 29.3 °F 17.5 °F 30.20 in NNE 5.3 mph 29.0 mph 61 % 0.00 in
21:16 29.3 °F 17.5 °F 30.20 in NE 1.6 mph 29.0 mph 61 % 0.00 in
21:21 29.3 °F 17.5 °F 30.20 in NNW 0.5 mph 29.0 mph 61 % 0.00 in
21:26 29.2 °F 17.4 °F 30.19 in NW 3.6 mph 29.0 mph 61 % 0.00 in
21:31 29.1 °F 16.9 °F 30.20 in NNW 2.9 mph 29.0 mph 60 % 0.00 in
21:36 29.0 °F 16.8 °F 30.20 in North 5.7 mph 29.0 mph 60 % 0.00 in
21:41 28.9 °F 16.7 °F 30.20 in NNW 5.4 mph 29.0 mph 60 % 0.00 in
21:46 28.7 °F 16.6 °F 30.20 in North 4.3 mph 29.0 mph 60 % 0.00 in
21:51 28.6 °F 16.5 °F 30.20 in NNE 4.6 mph 29.0 mph 60 % 0.00 in
21:56 28.5 °F 16.4 °F 30.21 in NNW 4.3 mph 29.0 mph 60 % 0.00 in
22:01 28.4 °F 16.3 °F 30.21 in NNE 3.0 mph 29.0 mph 60 % 0.00 in
22:06 28.4 °F 16.7 °F 30.21 in North 3.8 mph 29.0 mph 61 % 0.00 in
22:11 28.3 °F 16.2 °F 30.21 in NE 5.6 mph 29.0 mph 60 % 0.00 in
22:17 28.2 °F 15.7 °F 30.20 in NNE 6.1 mph 29.0 mph 59 % 0.00 in
22:22 28.1 °F 15.6 °F 30.20 in NNE 5.4 mph 29.0 mph 59 % 0.00 in
22:27 28.1 °F 15.6 °F 30.19 in NNE 5.6 mph 29.0 mph 59 % 0.00 in
22:32 28.0 °F 15.5 °F 30.20 in North 5.9 mph 29.0 mph 59 % 0.00 in
22:37 27.9 °F 15.4 °F 30.20 in NNE 7.3 mph 29.0 mph 59 % 0.00 in
22:42 27.8 °F 15.3 °F 30.20 in NNE 5.0 mph 29.0 mph 59 % 0.00 in
22:47 27.7 °F 15.6 °F 30.20 in NNE 2.0 mph 29.0 mph 60 % 0.00 in
22:52 27.6 °F 15.5 °F 30.19 in NE 6.5 mph 29.0 mph 60 % 0.00 in
22:57 27.5 °F 15.4 °F 30.20 in NNE 4.5 mph 29.0 mph 60 % 0.00 in
23:02 27.4 °F 14.9 °F 30.20 in North 4.5 mph 29.0 mph 59 % 0.00 in
23:07 27.4 °F 14.9 °F 30.21 in NNE 4.8 mph 29.0 mph 59 % 0.00 in
23:12 27.3 °F 15.2 °F 30.22 in NNW 5.6 mph 29.0 mph 60 % 0.00 in
23:17 27.2 °F 15.5 °F 30.23 in NNE 6.6 mph 29.0 mph 61 % 0.00 in
23:22 27.1 °F 15.4 °F 30.23 in NE 5.5 mph 29.0 mph 61 % 0.00 in
23:27 27.0 °F 14.9 °F 30.23 in NNE 3.5 mph 29.0 mph 60 % 0.00 in
23:32 26.9 °F 14.9 °F 30.24 in NNE 6.8 mph 29.0 mph 60 % 0.00 in
23:38 26.8 °F 14.4 °F 30.24 in NNE 4.9 mph 29.0 mph 59 % 0.00 in
23:43 26.7 °F 14.7 °F 30.24 in NNE 5.8 mph 29.0 mph 60 % 0.00 in
23:48 26.6 °F 14.2 °F 30.24 in NNE 5.8 mph 29.0 mph 59 % 0.00 in
23:53 26.5 °F 13.7 °F 30.25 in NNE 6.0 mph 29.0 mph 58 % 0.00 in
23:58 26.4 °F 14.0 °F 30.25 in NNE 6.5 mph 29.0 mph 59 % 0.00 in
Crab Meadow Weather
Compliments of Weather Underground - 3 mb

Script developed by  Jim McMurry - jmcmurry@mwt.net Adapted for the template by  Wim van der Kuil - Leuven-Template.eu

Astronomy: One year on Mercury is only 88 days.